Alturas, CA

2:15 PM PST on January 17, 2018 (GMT -0800)
Alturas Municipal

Weather History for KAAT - April, 2014

Change the Weather History Date:

Tuesday, April 29, 2014

  Actual Average Record
Temperature  
Mean Temperature 50 °F 47 °F  
Max Temperature 72 °F 62 °F 80 °F (1968)
Min Temperature 27 °F 32 °F 17 °F (2000)
Degree Days  
Heating Degree Days 15 18  
Month to date heating degree days 529 634  
Since 1 July heating degree days 6038 6326  
Cooling Degree Days 0 0  
Month to date cooling degree days 0 0  
Year to date cooling degree days 0 0  
Moisture  
Dew Point 25 °F    
Average Humidity 55    
Maximum Humidity 92    
Minimum Humidity 17    
Precipitation  
Precipitation 0.00 in 0.06 in 1.60 in (1995)
Month to date precipitation 0.62 1.51  
Year to date precipitation 4.38 6.13  
Sea Level Pressure  
Sea Level Pressure 30.39 in    
Wind  
Wind Speed 6 mph (East)    
Max Wind Speed 16 mph    
Max Gust Speed 21 mph    
Visibility 10 miles    
Events      
T = Trace of Precipitation, MM = Missing Value Source: NWS Daily Summary

Daily Weather History Graph

Daily Weather History Graph

Search for Another Location

Airport or City:

Trip Planner

Search our weather history database for the weather conditions in past years. The results will help you decide how hot, cold, wet, or windy it might be!

Date:

Astronomy

Apr. 29, 2014 Rise Set
Actual Time 6:01 AM PDT 7:58 PM PDT
Civil Twilight 5:31 AM PDT 8:28 PM PDT
Nautical Twilight 4:55 AM PDT 9:04 PM PDT
Astronomical Twilight 4:15 AM PDT 9:44 PM PDT
Moon 6:23 AM PDT (4/29) 8:43 PM PDT (4/29)
Length of Visible Light 14h 56m
Length of Day
13h 56m
New Moon, 0% of the Moon is Illuminated
Apr 29
New Moon
May 6
First Quarter
May 14
Full
May 21
Last Quarter
May 28
New

Hourly Weather History & Observations

Time (PDT) Temp. Dew Point Humidity Pressure Visibility Wind Dir Wind Speed Gust Speed Precip Events Conditions
12:55 AM 36.0 °F 27.0 °F 70% 30.37 in 10.0 mi Calm Calm - N/A   Clear
1:55 AM 32.0 °F 26.1 °F 79% 30.39 in 10.0 mi Calm Calm - N/A   Clear
2:55 AM 30.0 °F 26.1 °F 85% 30.40 in 10.0 mi Calm Calm - N/A   Clear
3:55 AM 28.9 °F 26.1 °F 89% 30.41 in 10.0 mi Calm Calm - N/A   Clear
4:55 AM 28.0 °F 24.1 °F 85% 30.42 in 10.0 mi Calm Calm - N/A   Clear
5:55 AM 28.0 °F 24.1 °F 85% 30.43 in 10.0 mi Calm Calm - N/A   Clear
6:55 AM 32.0 °F 27.0 °F 82% 30.44 in 10.0 mi Calm Calm - N/A   Clear
7:55 AM 39.0 °F 28.9 °F 67% 30.45 in 10.0 mi Calm Calm - N/A   Clear
8:55 AM 46.9 °F 30.9 °F 54% 30.45 in 10.0 mi Calm Calm - N/A   Clear
9:55 AM 54.0 °F 28.0 °F 37% 30.43 in 10.0 mi Calm Calm - N/A   Clear
10:55 AM 60.1 °F 26.1 °F 27% 30.42 in 10.0 mi Variable 4.6 mph - N/A   Clear
11:55 AM 64.9 °F 24.1 °F 21% 30.41 in 10.0 mi East 8.1 mph - N/A   Clear
12:55 PM 68.0 °F 26.1 °F 21% 30.39 in 10.0 mi East 9.2 mph 20.7 mph N/A   Clear
2:55 PM 70.0 °F 25.0 °F 18% 30.38 in 10.0 mi East 10.4 mph - N/A   Clear
3:55 PM 71.1 °F 25.0 °F 18% 30.36 in 10.0 mi East 12.7 mph 17.3 mph N/A   Clear
4:55 PM 72.0 °F 25.0 °F 17% 30.34 in 10.0 mi ENE 10.4 mph - N/A   Clear
5:55 PM 70.0 °F 23.0 °F 17% 30.34 in 10.0 mi East 12.7 mph 19.6 mph N/A   Clear
6:55 PM 68.0 °F 21.9 °F 17% 30.33 in 10.0 mi East 10.4 mph - N/A   Clear
7:55 PM 62.1 °F 24.1 °F 23% 30.34 in 10.0 mi East 6.9 mph - N/A   Clear
8:55 PM 55.0 °F 26.1 °F 33% 30.35 in 10.0 mi ENE 6.9 mph - N/A   Clear
10:55 PM 55.0 °F 23.0 °F 29% 30.35 in 10.0 mi ENE 9.2 mph - N/A   Clear
11:55 PM 53.1 °F 19.9 °F 27% 30.35 in 10.0 mi NE 8.1 mph - N/A   Clear